Waarnemingen

Advertentie
Mijn weer
Liscombe, Groot Brittannië (3710): temperatuur & dauwpunt: 15.08.2018 05:00:00 - 21.08.2018 05:00:00 (BST)Liscombe, Groot Brittannië (3710): temperatuur -20cm & temperatuur -100cm: 15.08.2018 05:00:00 - 21.08.2018 05:00:00 (BST)Liscombe, Groot Brittannië (3710): windsnelheid & windstoten: 15.08.2018 05:00:00 - 21.08.2018 05:00:00 (BST)Liscombe, Groot Brittannië (3710): windrichting: 15.08.2018 05:00:00 - 21.08.2018 05:00:00 (BST)Liscombe, Groot Brittannië (3710): luchtdruk: 15.08.2018 05:00:00 - 21.08.2018 05:00:00 (BST)Liscombe, Groot Brittannië (3710): zicht: 15.08.2018 05:00:00 - 21.08.2018 05:00:00 (BST)Liscombe, Groot Brittannië (3710): Zonneschijnduur: 15.08.2018 05:00:00 - 21.08.2018 05:00:00 (BST)Liscombe, Groot Brittannië (3710): neerslag: 15.08.2018 05:00:00 - 21.08.2018 05:00:00 (BST)
Datum & Tijd tt [°C] td [°C] tt -20cm [°C] tt -100cm [°C] ff [km/u] ff [kn] fx [km/u] fx [kn] dd ppp [hPa] vv [km] sd [min] rr [mm]
21.08.2018 05:00:00 - - - - - - - - - - - - 0,2
21.08.2018 04:00:00 13,9 13,9 - - 5 3 - - W 1020,5 0,7 0 0,0
21.08.2018 03:00:00 14,4 14,4 - - 8 4 - - W 1020,5 1,9 0 0,2
21.08.2018 02:00:00 14,8 14,7 - - 8 4 - - W 1020,7 3,8 0 0,2
21.08.2018 01:00:00 15,2 15,2 - - 4 2 - - WZW 1020,8 0,8 - 0,0
21.08.2018 00:00:00 15,2 15,1 - - 5 3 - - WZW 1020,8 7 0 0,0
20.08.2018 23:00:00 15,1 15,1 - - 11 6 - - W 1020,8 8 0 0,2
20.08.2018 22:00:00 15,8 15,8 - - 8 4 - - W 1020,7 3,3 0 0,2
20.08.2018 21:00:00 16,0 15,9 - - 8 4 - - W 1020,6 8 0 0,0
20.08.2018 20:00:00 16,1 16,1 - - 8 4 - - WZW 1020,4 4,2 0 0,0
20.08.2018 19:00:00 16,2 16,2 - - 16 9 - - W 1020,5 6 0 0,0
20.08.2018 18:00:00 18,1 17,6 - - 11 6 - - ZW 1020,3 17 0 0,0
20.08.2018 17:00:00 18,3 17,2 - - 11 6 - - W 1020,5 4,2 0 0,0
20.08.2018 16:00:00 18,7 16,5 - - 11 6 - - ZW 1020,8 10 0 0,0
20.08.2018 15:00:00 18,8 16,5 - - 13 7 - - WZW 1021,0 45 0 0,0
20.08.2018 14:00:00 19,3 19,2 - - 11 6 - - W 1020,8 7 0 0,0
20.08.2018 13:00:00 18,1 16,9 - - 13 7 - - WZW 1021,3 30 0 0,0
20.08.2018 12:00:00 18,1 17,5 - - 13 7 - - W 1021,3 20 0 0,0
20.08.2018 11:00:00 16,9 16,9 - - 15 8 - - W 1021,5 20 0 0,0
20.08.2018 10:00:00 16,1 16,1 17,9 16,4 13 7 - - W 1021,6 10 0 0,0
20.08.2018 09:00:00 15,9 15,9 - - 11 6 - - WZW 1021,3 2,5 0 0,2
20.08.2018 08:00:00 16,3 16,2 - - 8 4 - - WZW 1021,2 0,6 0 0,2
20.08.2018 07:00:00 16,1 16,1 - - 9 5 - - ZW 1020,9 0,1 0 0,2
20.08.2018 06:00:00 15,9 15,9 - - 8 4 - - WZW 1020,7 0,1 0 0,2
20.08.2018 05:00:00 15,8 15,8 - - 5 3 - - WZW 1020,7 0,1 0 0,0
20.08.2018 04:00:00 15,8 15,8 - - 5 3 - - WZW 1021,0 0,1 0 0,0
20.08.2018 03:00:00 15,8 15,8 - - 5 3 - - WZW 1021,3 0,2 0 0,2
20.08.2018 02:00:00 15,7 15,7 - - 11 6 - - W 1021,5 0,3 0 0,0
20.08.2018 01:00:00 15,7 15,7 - - 9 5 - - W 1021,4 4,4 - 0,0
20.08.2018 00:00:00 15,7 15,7 - - 11 6 - - W 1021,4 0,2 0 0,0
19.08.2018 23:00:00 15,4 15,4 - - 9 5 - - WNW 1021,5 0,1 0 0,0
19.08.2018 22:00:00 15,3 15,3 - - 9 5 - - WNW 1021,3 0,3 0 0,0
19.08.2018 21:00:00 15,2 15,2 - - 15 8 - - WNW 1020,9 3,9 0 0,0
19.08.2018 20:00:00 15,6 15,6 - - 15 8 - - W 1020,4 0,7 0 0,0
19.08.2018 19:00:00 15,9 15,9 - - 16 9 - - W 1020,3 17 0 0,0
19.08.2018 18:00:00 16,5 16,5 - - 21 11 - - W 1020,0 7 0 0,0
19.08.2018 17:00:00 16,7 16,7 - - 16 9 - - W 1020,2 4,5 0 0,0
19.08.2018 16:00:00 17,3 17,3 - - 13 7 - - W 1019,9 1,5 0 0,0
19.08.2018 15:00:00 17,6 17,4 - - 18 10 - - W 1019,8 2,7 0 0,0
19.08.2018 14:00:00 17,6 16,8 - - 16 9 - - W 1019,6 6 0 0,0
19.08.2018 13:00:00 17,7 17,3 - - 18 10 - - W 1019,2 19 0 0,0
19.08.2018 12:00:00 17,2 17,2 - - 18 10 48 26 W 1019,2 24 0 0,2
19.08.2018 11:00:00 16,5 16,5 - - 21 11 48 26 W 1019,0 13 0 0,0
19.08.2018 10:00:00 16,5 16,4 17,7 16,5 18 10 - - WZW 1018,6 3,1 0 0,2
19.08.2018 09:00:00 16,2 16,2 - - 21 11 50 27 WZW 1018,2 5 0 0,2
19.08.2018 08:00:00 15,7 15,7 - - 22 12 - - ZW 1018,2 1,6 0 0,2
19.08.2018 07:00:00 15,1 15,1 - - 26 14 - - ZW 1018,2 0,5 0 0,2
19.08.2018 06:00:00 14,7 14,7 - - 24 13 46 25 ZW 1018,2 0,5 0 0,0
19.08.2018 05:00:00 14,3 14,3 - - 24 13 - - ZW 1018,8 3,4 0 0,0
19.08.2018 04:00:00 14,0 14,0 - - 22 12 - - ZW 1019,4 10 0 0,0
19.08.2018 03:00:00 14,2 14,1 - - 21 11 - - ZW 1020,0 8 0 0,0
19.08.2018 02:00:00 14,1 14,1 - - 18 10 - - ZW 1020,4 7 0 0,0
19.08.2018 01:00:00 14,0 14,0 - - 18 10 - - ZW 1020,8 5 - -
19.08.2018 00:00:00 14,5 14,4 - - 16 9 - - ZZW 1020,9 6 0 0,0
18.08.2018 23:00:00 15,4 15,3 - - 18 10 - - ZZW 1021,2 3,8 0 0,0
18.08.2018 22:00:00 15,3 15,3 - - 9 5 - - ZW 1021,5 4,0 0 0,2
18.08.2018 21:00:00 15,4 15,3 - - 15 8 - - ZW 1021,7 2,2 0 0,4
18.08.2018 20:00:00 15,8 15,8 - - 9 5 - - WZW 1021,4 2,3 0 0,6
18.08.2018 19:00:00 16,2 16,2 - - 9 5 - - WZW 1021,3 1,7 0 0,2
18.08.2018 18:00:00 16,6 16,5 - - 11 6 - - ZW 1021,5 1,4 0 0,2
18.08.2018 17:00:00 17,5 15,7 - - 15 8 - - ZW 1021,3 29 0 0,0
18.08.2018 16:00:00 17,8 15,9 - - 13 7 - - W 1021,4 30 0 0,0
18.08.2018 15:00:00 16,9 15,6 - - 13 7 - - WZW 1021,8 40 0 0,0
18.08.2018 14:00:00 16,2 15,5 - - 11 6 - - WZW 1022,2 6 0 0,0
18.08.2018 13:00:00 16,4 16,4 - - 11 6 - - WZW 1022,1 3,8 0 0,0
18.08.2018 12:00:00 16,3 14,7 - - 13 7 - - WZW 1022,0 1,7 12 0,0
18.08.2018 11:00:00 16,0 15,4 - - 11 6 - - WZW 1021,7 24 0 0,0
18.08.2018 10:00:00 14,8 14,8 17,7 16,5 11 6 - - WZW 1021,7 20 0 0,0
18.08.2018 09:00:00 14,2 14,2 - - 15 8 - - W 1021,6 15 0 0,0
18.08.2018 08:00:00 13,7 13,7 - - 11 6 - - W 1021,4 4,1 0 0,2
18.08.2018 07:00:00 13,4 13,4 - - 11 6 - - WZW 1021,1 2,8 0 0,4
18.08.2018 06:00:00 13,5 13,5 - - 9 5 - - WZW 1021,1 3,1 0 0,0
18.08.2018 05:00:00 13,7 13,6 - - 13 7 - - WZW 1021,1 6 0 0,2
18.08.2018 04:00:00 13,9 13,9 - - 16 9 - - W 1021,0 12 0 0,0
18.08.2018 03:00:00 14,1 14,1 - - 13 7 - - WZW 1020,9 8 0 0,2
18.08.2018 02:00:00 14,1 14,1 - - 11 6 - - WZW 1021,2 7 0 0,4
18.08.2018 01:00:00 13,9 13,9 - - 13 7 - - WZW 1021,4 2,7 - 0,2
18.08.2018 00:00:00 13,7 13,7 - - 11 6 - - W 1021,9 1,2 0 0,0
17.08.2018 23:00:00 13,5 13,5 - - 9 5 - - WZW 1021,9 5 0 0,2
17.08.2018 22:00:00 13,4 13,4 - - 8 4 - - WZW 1022,1 4,8 0 0,0
17.08.2018 21:00:00 13,4 13,2 - - 11 6 - - ZW 1021,7 1,4 0 0,0
17.08.2018 20:00:00 13,6 12,9 - - 13 7 - - ZW 1021,6 18 6 0,0
17.08.2018 19:00:00 13,8 12,5 - - 11 6 - - WZW 1021,5 25 6 0,0
17.08.2018 18:00:00 14,7 11,8 - - 13 7 - - WZW 1021,5 27 6 0,0
17.08.2018 17:00:00 14,6 10,7 - - 15 8 - - W 1021,3 30 0 0,0
17.08.2018 16:00:00 14,8 11,5 - - 16 9 - - W 1021,5 29 0 0,0
17.08.2018 15:00:00 16,7 11,4 - - 21 11 - - W 1021,3 30 0 0,0
17.08.2018 14:00:00 15,4 10,0 - - 22 12 - - W 1021,7 35 24 0,0
17.08.2018 13:00:00 15,4 10,6 - - 15 8 - - W 1021,6 35 18 0,0
17.08.2018 12:00:00 16,2 10,1 - - 15 8 - - WZW 1021,5 35 30 0,0
17.08.2018 11:00:00 14,5 9,8 - - 15 8 - - W 1021,7 45 0 0,0
17.08.2018 10:00:00 14,2 11,8 17,7 16,7 11 6 - - W 1021,4 40 0 0,0
17.08.2018 09:00:00 13,6 13,5 - - 5 3 - - ZW 1020,8 30 12 0,0
17.08.2018 08:00:00 11,3 11,3 - - 2 1 - - ZZW 1020,7 27 0 0,0
17.08.2018 07:00:00 10,6 10,6 - - 2 1 - - WNW 1020,4 24 0 0,0
17.08.2018 06:00:00 10,0 9,9 - - 5 3 - - WNW 1019,8 22 0 0,0
17.08.2018 05:00:00 10,1 9,9 - - 9 5 - - NW 1019,5 19 0 0,0
17.08.2018 04:00:00 10,8 10,8 - - 9 5 - - NW 1019,2 18 0 0,0
17.08.2018 03:00:00 10,4 10,4 - - 8 4 - - WNW 1019,4 12 0 0,0
17.08.2018 02:00:00 10,6 10,6 - - 4 2 - - NW 1019,0 9 0 0,0
17.08.2018 01:00:00 11,2 11,2 - - 5 3 - - NW 1018,9 10 - 0,0
17.08.2018 00:00:00 10,4 10,4 - - 5 3 - - NW 1018,9 10 0 0,0
16.08.2018 23:00:00 10,5 10,4 - - 8 4 - - WNW 1018,5 10 0 0,0
16.08.2018 22:00:00 11,0 10,8 - - 9 5 - - WNW 1018,1 13 0 0,0
16.08.2018 21:00:00 11,1 9,7 - - 5 3 - - WNW 1017,7 22 0 0,0
16.08.2018 20:00:00 12,9 10,2 - - 9 5 - - W 1016,7 30 42 0,0
16.08.2018 19:00:00 14,3 9,8 - - 16 9 - - W 1016,0 35 54 0,0
16.08.2018 18:00:00 15,3 10,6 - - 18 10 - - W 1015,6 35 54 0,0
16.08.2018 17:00:00 16,0 9,1 - - 21 11 - - W 1015,3 50 42 0,0
16.08.2018 16:00:00 15,4 9,3 - - 18 10 - - W 1015,1 50 48 0,0
16.08.2018 15:00:00 15,5 10,1 - - 22 12 - - W 1014,7 40 24 0,0
16.08.2018 14:00:00 15,3 10,9 - - 15 8 - - W 1014,2 40 30 0,0
16.08.2018 13:00:00 16,3 10,4 - - 18 10 - - W 1014,0 40 30 0,0
16.08.2018 12:00:00 16,1 11,2 - - 18 10 - - W 1013,7 40 42 0,0
16.08.2018 11:00:00 15,8 13,6 - - 15 8 - - WNW 1013,6 28 24 0,0
16.08.2018 10:00:00 12,7 12,0 18,0 16,7 9 5 - - W 1013,9 15 0 0,0
16.08.2018 09:00:00 12,5 12,4 - - 13 7 - - W 1013,6 15 0 0,0
16.08.2018 08:00:00 12,0 12,0 - - 9 5 - - W 1013,3 15 0 2,4
16.08.2018 07:00:00 12,6 12,6 - - 11 6 - - WNW 1012,8 3,7 0 3,0
16.08.2018 06:00:00 13,1 13,1 - - 13 7 - - WZW 1012,5 5 0 1,6
16.08.2018 05:00:00 15,0 15,0 - - 21 11 - - WZW 1012,4 3,9 0 0,8
16.08.2018 04:00:00 15,2 15,2 - - 24 13 - - ZW 1012,3 0,4 0 0,2
16.08.2018 03:00:00 15,2 15,1 - - 24 13 - - ZW 1013,0 0,5 0 1,4
16.08.2018 02:00:00 15,1 15,1 - - 21 11 - - ZZW 1013,7 2,2 0 0,2
16.08.2018 01:00:00 15,1 15,1 - - 28 15 - - ZW 1014,2 4,7 - 0,4
16.08.2018 00:00:00 15,2 15,2 - - 21 11 - - ZZW 1014,5 12 0 0,0
15.08.2018 23:00:00 15,2 15,2 - - 22 12 - - ZW 1015,0 29 0 0,0
15.08.2018 22:00:00 15,3 15,3 - - 26 14 - - ZW 1015,6 26 0 0,2
15.08.2018 21:00:00 15,7 15,6 - - 18 10 - - ZW 1015,8 4,0 0 0,0
15.08.2018 20:00:00 15,7 15,3 - - 18 10 - - ZW 1015,8 29 0 0,0
15.08.2018 19:00:00 16,0 15,4 - - 16 9 - - ZW 1016,2 4,2 0 0,2
15.08.2018 18:00:00 16,8 15,6 - - 16 9 - - ZW 1016,5 16 0 0,0
15.08.2018 17:00:00 17,5 15,1 - - 15 8 - - ZZW 1016,9 35 0 0,0
15.08.2018 16:00:00 18,0 14,6 - - 18 10 - - ZW 1017,2 45 0 0,0
15.08.2018 15:00:00 19,1 15,0 - - 21 11 - - ZW 1017,5 45 12 0,0
15.08.2018 14:00:00 17,8 15,8 - - 15 8 - - ZW 1018,2 35 0 0,0
15.08.2018 13:00:00 17,2 14,7 - - 21 11 - - ZW 1018,5 40 0 0,0
15.08.2018 12:00:00 17,1 15,9 - - 15 8 - - ZW 1018,7 35 0 0,0
15.08.2018 11:00:00 15,5 15,5 - - 15 8 - - ZW 1019,1 24 0 0,2
15.08.2018 10:00:00 15,5 15,5 18,0 16,7 18 10 - - ZW 1018,9 5 0 0,4
15.08.2018 09:00:00 15,0 15,0 - - 16 9 - - ZW 1018,9 1,5 0 0,8
15.08.2018 08:00:00 14,8 14,8 - - 13 7 - - ZW 1018,9 1,8 0 0,4
15.08.2018 07:00:00 14,6 14,6 - - 9 5 - - WZW 1019,0 2,0 0 0,2
15.08.2018 06:00:00 14,5 14,5 - - 8 4 - - W 1018,8 6 0 0,0
15.08.2018 05:00:00 14,3 14,2 - - 8 4 - - WZW 1018,8 20 0 0,0

tt = temperatuur
td = dauwpunt
tt -20cm = temperatuur -20cm
tt -100cm = temperatuur -100cm
ff = windsnelheid
fx = windstoten
dd = windrichting
ppp = luchtdruk
vv = zicht
sd = Zonneschijnduur
rr = neerslag

Weerstations in de omgeving